Disclaimer

Please do not use the information listed here in-flight or in-navigation, as they are not provided to us by the airports but are provided by volunteers, so they might be outdated.

Search


Regions


Airport information page

No radio frequency information is available.

Airport informations:
Latitude: 36° 54' 33.77" N
Longitude: 054° 24' 04.82" E
Elevation: -24 feet - -7 meters
Operating hours: N/A
Operating agency: Civil government, landing fees and diplomatic clearance may be required
Timezone: UTC+3:30
Fuel: N/A

Runway information:
14/32 - 7540 x 148 feet< - >2298 x 45 meters

Recent METARs:
OING 192300Z 00000KT 9999 SCT010 BKN090 05/04 Q1023
OING 192300Z 00000KT 9999 SCT010 BKN090 05/04 Q1023
OING 200000Z 00000KT 9999 FEW030 BKN090 05/04 Q1024

Airport on the map: